Year,Month,Day,Hour,Minute,Value (Times are PST for temperature in C)
2007,05,21,00,00,7.30
2007,05,21,00,01,7.30
2007,05,21,00,02,7.30
2007,05,21,00,03,7.30
2007,05,21,00,04,7.30
2007,05,21,00,05,7.30
2007,05,21,00,06,7.30
2007,05,21,00,07,7.30
2007,05,21,00,08,7.30
2007,05,21,00,09,7.30
2007,05,21,00,10,7.30
2007,05,21,00,11,7.20
2007,05,21,00,12,7.20
2007,05,21,00,13,7.20
2007,05,21,00,14,7.20
2007,05,21,00,15,7.20
2007,05,21,00,16,7.20
2007,05,21,00,17,7.20
2007,05,21,00,18,7.20
2007,05,21,00,19,7.20
2007,05,21,00,20,7.20
2007,05,21,00,21,7.20
2007,05,21,00,22,7.20
2007,05,21,00,23,7.20
2007,05,21,00,24,7.20
2007,05,21,00,25,7.20
2007,05,21,00,26,7.20
2007,05,21,00,27,7.20
2007,05,21,00,28,7.20
2007,05,21,00,29,7.20
2007,05,21,00,30,7.20
2007,05,21,00,31,7.20
2007,05,21,00,32,7.20
2007,05,21,00,33,7.20
2007,05,21,00,34,7.10
2007,05,21,00,35,7.10
2007,05,21,00,36,7.10
2007,05,21,00,37,7.10
2007,05,21,00,38,7.10
2007,05,21,00,39,7.10
2007,05,21,00,40,7.10
2007,05,21,00,41,7.10
2007,05,21,00,42,7.10
2007,05,21,00,43,7.10
2007,05,21,00,44,7.10
2007,05,21,00,45,7.10
2007,05,21,00,46,7.10
2007,05,21,00,47,7.10
2007,05,21,00,48,7.20
2007,05,21,00,49,7.20
2007,05,21,00,50,7.20
2007,05,21,00,51,7.20
2007,05,21,00,52,7.20
2007,05,21,00,53,7.20
2007,05,21,00,54,7.20
2007,05,21,00,55,7.20
2007,05,21,00,56,7.20
2007,05,21,00,57,7.20
2007,05,21,00,58,7.20
2007,05,21,00,59,7.20
2007,05,21,01,00,7.20
2007,05,21,01,01,7.20
2007,05,21,01,02,7.20
2007,05,21,01,03,7.20
2007,05,21,01,04,7.20
2007,05,21,01,05,7.20
2007,05,21,01,06,7.20
2007,05,21,01,07,7.10
2007,05,21,01,08,7.10
2007,05,21,01,09,7.10
2007,05,21,01,10,7.10
2007,05,21,01,11,7.10
2007,05,21,01,12,7.10
2007,05,21,01,13,7.00
2007,05,21,01,14,7.00
2007,05,21,01,15,7.00
2007,05,21,01,16,7.00
2007,05,21,01,17,6.90
2007,05,21,01,18,6.90
2007,05,21,01,19,6.90
2007,05,21,01,20,6.90
2007,05,21,01,21,6.90
2007,05,21,01,22,6.90
2007,05,21,01,23,6.90
2007,05,21,01,24,6.90
2007,05,21,01,25,6.80
2007,05,21,01,26,6.80
2007,05,21,01,27,6.80
2007,05,21,01,28,6.80
2007,05,21,01,29,6.80
2007,05,21,01,30,6.80
2007,05,21,01,31,6.70
2007,05,21,01,32,6.70
2007,05,21,01,33,6.70
2007,05,21,01,34,6.70
2007,05,21,01,35,6.70
2007,05,21,01,36,6.70
2007,05,21,01,37,6.70
2007,05,21,01,38,6.70
2007,05,21,01,39,6.70
2007,05,21,01,40,6.70
2007,05,21,01,41,6.70
2007,05,21,01,42,6.70
2007,05,21,01,43,6.60
2007,05,21,01,44,6.60
2007,05,21,01,45,6.60
2007,05,21,01,46,6.60
2007,05,21,01,47,6.60
2007,05,21,01,48,6.60
2007,05,21,01,49,6.50
2007,05,21,01,50,6.50
2007,05,21,01,51,6.50
2007,05,21,01,52,6.50
2007,05,21,01,53,6.40
2007,05,21,01,54,6.40
2007,05,21,01,55,6.40
2007,05,21,01,56,6.40
2007,05,21,01,57,6.40
2007,05,21,01,58,6.40
2007,05,21,01,59,6.40
2007,05,21,02,00,6.40
2007,05,21,02,01,6.40
2007,05,21,02,02,6.40
2007,05,21,02,03,6.40
2007,05,21,02,04,6.40
2007,05,21,02,05,6.40
2007,05,21,02,06,6.40
2007,05,21,02,07,6.40
2007,05,21,02,08,6.30
2007,05,21,02,09,6.30
2007,05,21,02,10,6.30
2007,05,21,02,11,6.30
2007,05,21,02,12,6.30
2007,05,21,02,13,6.30
2007,05,21,02,14,6.30
2007,05,21,02,15,6.30
2007,05,21,02,16,6.30
2007,05,21,02,17,6.30
2007,05,21,02,18,6.30
2007,05,21,02,19,6.30
2007,05,21,02,20,6.30
2007,05,21,02,21,6.30
2007,05,21,02,22,6.30
2007,05,21,02,23,6.30
2007,05,21,02,24,6.30
2007,05,21,02,25,6.30
2007,05,21,02,26,6.30
2007,05,21,02,27,6.30
2007,05,21,02,28,6.30
2007,05,21,02,29,6.30
2007,05,21,02,30,6.30
2007,05,21,02,31,6.30
2007,05,21,02,32,6.30
2007,05,21,02,33,6.30
2007,05,21,02,34,6.30
2007,05,21,02,35,6.30
2007,05,21,02,36,6.20
2007,05,21,02,37,6.20
2007,05,21,02,38,6.20
2007,05,21,02,39,6.20
2007,05,21,02,40,6.20
2007,05,21,02,41,6.20
2007,05,21,02,42,6.20
2007,05,21,02,43,6.20
2007,05,21,02,44,6.20
2007,05,21,02,45,6.20
2007,05,21,02,46,6.20
2007,05,21,02,47,6.20
2007,05,21,02,48,6.20
2007,05,21,02,49,6.20
2007,05,21,02,50,6.20
2007,05,21,02,51,6.20
2007,05,21,02,52,6.20
2007,05,21,02,53,6.20
2007,05,21,02,54,6.20
2007,05,21,02,55,6.20
2007,05,21,02,56,6.20
2007,05,21,02,57,6.20
2007,05,21,02,58,6.20
2007,05,21,02,59,6.30
2007,05,21,03,00,6.30
2007,05,21,03,01,6.20
2007,05,21,03,02,6.20
2007,05,21,03,03,6.20
2007,05,21,03,04,6.20
2007,05,21,03,05,6.20
2007,05,21,03,06,6.20
2007,05,21,03,07,6.20
2007,05,21,03,08,6.20
2007,05,21,03,09,6.20
2007,05,21,03,10,6.20
2007,05,21,03,11,6.20
2007,05,21,03,12,6.20
2007,05,21,03,13,6.20
2007,05,21,03,14,6.20
2007,05,21,03,15,6.20
2007,05,21,03,16,6.20
2007,05,21,03,17,6.20
2007,05,21,03,18,6.20
2007,05,21,03,19,6.20
2007,05,21,03,20,6.20
2007,05,21,03,21,6.20
2007,05,21,03,22,6.20
2007,05,21,03,23,6.20
2007,05,21,03,24,6.10
2007,05,21,03,25,6.10
2007,05,21,03,26,6.10
2007,05,21,03,27,6.10
2007,05,21,03,28,6.10
2007,05,21,03,29,6.00
2007,05,21,03,30,6.00
2007,05,21,03,31,6.00
2007,05,21,03,32,6.00
2007,05,21,03,33,6.00
2007,05,21,03,34,6.00
2007,05,21,03,35,6.00
2007,05,21,03,36,6.00
2007,05,21,03,37,6.00
2007,05,21,03,38,5.90
2007,05,21,03,39,5.90
2007,05,21,03,40,5.90
2007,05,21,03,41,5.90
2007,05,21,03,42,5.90
2007,05,21,03,43,5.90
2007,05,21,03,44,5.90
2007,05,21,03,45,5.90
2007,05,21,03,46,5.90
2007,05,21,03,47,5.90
2007,05,21,03,48,5.90
2007,05,21,03,49,5.90
2007,05,21,03,50,5.90
2007,05,21,03,51,5.90
2007,05,21,03,52,5.90
2007,05,21,03,53,5.90
2007,05,21,03,54,5.90
2007,05,21,03,55,5.90
2007,05,21,03,56,5.90
2007,05,21,03,57,6.00
2007,05,21,03,58,6.00
2007,05,21,03,59,6.00
2007,05,21,04,00,6.00
2007,05,21,04,01,6.00
2007,05,21,04,02,6.00
2007,05,21,04,03,6.00
2007,05,21,04,04,6.10
2007,05,21,04,05,6.10
2007,05,21,04,06,6.10
2007,05,21,04,07,6.10
2007,05,21,04,08,6.10
2007,05,21,04,09,6.10
2007,05,21,04,10,6.10
2007,05,21,04,11,6.00
2007,05,21,04,12,6.00
2007,05,21,04,13,6.00
2007,05,21,04,14,6.00
2007,05,21,04,15,6.00
2007,05,21,04,16,6.00
2007,05,21,04,17,5.90
2007,05,21,04,18,5.90
2007,05,21,04,19,5.90
2007,05,21,04,20,5.90
2007,05,21,04,21,5.80
2007,05,21,04,22,5.80
2007,05,21,04,23,5.80
2007,05,21,04,24,5.80
2007,05,21,04,25,5.80
2007,05,21,04,26,5.70
2007,05,21,04,27,5.70
2007,05,21,04,28,5.70
2007,05,21,04,29,5.70
2007,05,21,04,30,5.70
2007,05,21,04,31,5.70
2007,05,21,04,32,5.70
2007,05,21,04,33,5.70
2007,05,21,04,34,5.70
2007,05,21,04,35,5.70
2007,05,21,04,36,5.70
2007,05,21,04,37,5.60
2007,05,21,04,38,5.60
2007,05,21,04,39,5.60
2007,05,21,04,40,5.60
2007,05,21,04,41,5.60
2007,05,21,04,42,5.60
2007,05,21,04,43,5.60
2007,05,21,04,44,5.50
2007,05,21,04,45,5.50
2007,05,21,04,46,5.50
2007,05,21,04,47,5.50
2007,05,21,04,48,5.50
2007,05,21,04,49,5.50
2007,05,21,04,50,5.50
2007,05,21,04,51,5.50
2007,05,21,04,52,5.50
2007,05,21,04,53,5.40
2007,05,21,04,54,5.40
2007,05,21,04,55,5.40
2007,05,21,04,56,5.40
2007,05,21,04,57,5.40
2007,05,21,04,58,5.40
2007,05,21,04,59,5.40
2007,05,21,05,00,5.40
2007,05,21,05,01,5.40
2007,05,21,05,02,5.40
2007,05,21,05,03,5.40
2007,05,21,05,04,5.40
2007,05,21,05,05,5.40
2007,05,21,05,06,5.40
2007,05,21,05,07,5.40
2007,05,21,05,08,5.40
2007,05,21,05,09,5.40
2007,05,21,05,10,5.40
2007,05,21,05,11,5.40
2007,05,21,05,12,5.40
2007,05,21,05,13,5.40
2007,05,21,05,14,5.40
2007,05,21,05,15,5.40
2007,05,21,05,16,5.40
2007,05,21,05,17,5.40
2007,05,21,05,18,5.40
2007,05,21,05,19,5.40
2007,05,21,05,20,5.40
2007,05,21,05,21,5.40
2007,05,21,05,22,5.40
2007,05,21,05,23,5.40
2007,05,21,05,24,5.40
2007,05,21,05,25,5.40
2007,05,21,05,26,5.40
2007,05,21,05,27,5.40
2007,05,21,05,28,5.40
2007,05,21,05,29,5.40
2007,05,21,05,30,5.40
2007,05,21,05,31,5.40
2007,05,21,05,32,5.40
2007,05,21,05,33,5.40
2007,05,21,05,34,5.40
2007,05,21,05,35,5.40
2007,05,21,05,36,5.40
2007,05,21,05,37,5.40
2007,05,21,05,38,5.40
2007,05,21,05,39,5.40
2007,05,21,05,40,5.40
2007,05,21,05,41,5.40
2007,05,21,05,42,5.40
2007,05,21,05,43,5.40
2007,05,21,05,44,5.30
2007,05,21,05,45,5.30
2007,05,21,05,46,5.30
2007,05,21,05,47,5.30
2007,05,21,05,48,5.30
2007,05,21,05,49,5.40
2007,05,21,05,50,5.40
2007,05,21,05,51,5.40
2007,05,21,05,52,5.40
2007,05,21,05,53,5.30
2007,05,21,05,54,5.30
2007,05,21,05,55,5.40
2007,05,21,05,56,5.40
2007,05,21,05,57,5.30
2007,05,21,05,58,5.30
2007,05,21,05,59,5.30
2007,05,21,06,00,5.30
2007,05,21,06,01,5.30
2007,05,21,06,02,5.30
2007,05,21,06,03,5.30
2007,05,21,06,04,5.30
2007,05,21,06,05,5.30
2007,05,21,06,06,5.30
2007,05,21,06,07,5.30
2007,05,21,06,08,5.30
2007,05,21,06,09,5.30
2007,05,21,06,10,5.30
2007,05,21,06,11,5.30
2007,05,21,06,12,5.30
2007,05,21,06,13,5.30
2007,05,21,06,14,5.30
2007,05,21,06,15,5.30
2007,05,21,06,16,5.30
2007,05,21,06,17,5.30
2007,05,21,06,18,5.30
2007,05,21,06,19,5.30
2007,05,21,06,20,5.30
2007,05,21,06,21,5.30
2007,05,21,06,22,5.30
2007,05,21,06,23,5.30
2007,05,21,06,24,5.30
2007,05,21,06,25,5.30
2007,05,21,06,26,5.30
2007,05,21,06,27,5.30
2007,05,21,06,28,5.30
2007,05,21,06,29,5.30
2007,05,21,06,30,5.30
2007,05,21,06,31,5.30
2007,05,21,06,32,5.30
2007,05,21,06,33,5.30
2007,05,21,06,34,5.30
2007,05,21,06,35,5.30
2007,05,21,06,36,5.30
2007,05,21,06,37,5.30
2007,05,21,06,38,5.30
2007,05,21,06,39,5.40
2007,05,21,06,40,5.40
2007,05,21,06,41,5.40
2007,05,21,06,42,5.30
2007,05,21,06,43,5.30
2007,05,21,06,44,5.30
2007,05,21,06,45,5.30
2007,05,21,06,46,5.30
2007,05,21,06,47,5.30
2007,05,21,06,48,5.30
2007,05,21,06,49,5.30
2007,05,21,06,50,5.40
2007,05,21,06,51,5.40
2007,05,21,06,52,5.40
2007,05,21,06,53,5.40
2007,05,21,06,54,5.50
2007,05,21,06,55,5.50
2007,05,21,06,56,5.50
2007,05,21,06,57,5.50
2007,05,21,06,58,5.50
2007,05,21,06,59,5.50
2007,05,21,07,00,5.50
2007,05,21,07,01,5.50
2007,05,21,07,02,5.50
2007,05,21,07,03,5.50
2007,05,21,07,04,5.50
2007,05,21,07,05,5.50
2007,05,21,07,06,5.50
2007,05,21,07,07,5.50
2007,05,21,07,08,5.60
2007,05,21,07,09,5.60
2007,05,21,07,10,5.60
2007,05,21,07,11,5.60
2007,05,21,07,12,5.60
2007,05,21,07,13,5.60
2007,05,21,07,14,5.60
2007,05,21,07,15,5.60
2007,05,21,07,16,5.60
2007,05,21,07,17,5.60
2007,05,21,07,18,5.60
2007,05,21,07,19,5.60
2007,05,21,07,20,5.60
2007,05,21,07,21,5.60
2007,05,21,07,22,5.60
2007,05,21,07,23,5.60
2007,05,21,07,24,5.60
2007,05,21,07,25,5.60
2007,05,21,07,26,5.70
2007,05,21,07,27,5.70
2007,05,21,07,28,5.70
2007,05,21,07,29,5.70
2007,05,21,07,30,5.80
2007,05,21,07,31,5.80
2007,05,21,07,32,5.80
2007,05,21,07,33,5.80
2007,05,21,07,34,5.90
2007,05,21,07,35,5.90
2007,05,21,07,36,5.90
2007,05,21,07,37,5.90
2007,05,21,07,38,6.00
2007,05,21,07,39,6.00
2007,05,21,07,40,6.10
2007,05,21,07,41,6.10
2007,05,21,07,42,6.10
2007,05,21,07,43,6.20
2007,05,21,07,44,6.20
2007,05,21,07,45,6.20
2007,05,21,07,46,6.30
2007,05,21,07,47,6.30
2007,05,21,07,48,6.40
2007,05,21,07,49,6.40
2007,05,21,07,50,6.40
2007,05,21,07,51,6.50
2007,05,21,07,52,6.50
2007,05,21,07,53,6.50
2007,05,21,07,54,6.60
2007,05,21,07,55,6.60
2007,05,21,07,56,6.70
2007,05,21,07,57,6.80
2007,05,21,07,58,6.80
2007,05,21,07,59,6.90
2007,05,21,08,00,6.90
2007,05,21,08,01,7.00
2007,05,21,08,02,7.10
2007,05,21,08,03,7.20
2007,05,21,08,04,7.20
2007,05,21,08,05,7.30
2007,05,21,08,06,7.30
2007,05,21,08,07,7.40
2007,05,21,08,08,7.40
2007,05,21,08,09,7.50
2007,05,21,08,10,7.50
2007,05,21,08,11,7.50
2007,05,21,08,12,7.50
2007,05,21,08,13,7.50
2007,05,21,08,14,7.60
2007,05,21,08,15,7.60
2007,05,21,08,16,7.60
2007,05,21,08,17,7.70
2007,05,21,08,18,7.70
2007,05,21,08,19,7.80
2007,05,21,08,20,7.90
2007,05,21,08,21,7.90
2007,05,21,08,22,8.00
2007,05,21,08,23,8.00
2007,05,21,08,24,8.00
2007,05,21,08,25,8.10
2007,05,21,08,26,8.10
2007,05,21,08,27,8.10
2007,05,21,08,28,8.20
2007,05,21,08,29,8.20
2007,05,21,08,30,8.20
2007,05,21,08,31,8.20
2007,05,21,08,32,8.30
2007,05,21,08,33,8.30
2007,05,21,08,34,8.40
2007,05,21,08,35,8.40
2007,05,21,08,36,8.40
2007,05,21,08,37,8.40
2007,05,21,08,38,8.50
2007,05,21,08,39,8.50
2007,05,21,08,40,8.60
2007,05,21,08,41,8.60
2007,05,21,08,42,8.60
2007,05,21,08,43,8.60
2007,05,21,08,44,8.60
2007,05,21,08,45,8.60
2007,05,21,08,46,8.60
2007,05,21,08,47,8.70
2007,05,21,08,48,8.70
2007,05,21,08,49,8.70
2007,05,21,08,50,8.70
2007,05,21,08,51,8.80
2007,05,21,08,52,8.90
2007,05,21,08,53,8.90
2007,05,21,08,54,8.90
2007,05,21,08,55,9.00
2007,05,21,08,56,9.00
2007,05,21,08,57,9.00
2007,05,21,08,58,9.10
2007,05,21,08,59,9.10
2007,05,21,09,00,9.10
2007,05,21,09,01,9.10
2007,05,21,09,02,9.10
2007,05,21,09,03,9.00
2007,05,21,09,04,9.00
2007,05,21,09,05,9.00
2007,05,21,09,06,9.00
2007,05,21,09,07,9.10
2007,05,21,09,08,9.10
2007,05,21,09,09,9.10
2007,05,21,09,10,9.20
2007,05,21,09,11,9.30
2007,05,21,09,12,9.40
2007,05,21,09,13,9.50
2007,05,21,09,14,9.60
2007,05,21,09,15,9.70
2007,05,21,09,16,9.80
2007,05,21,09,17,9.90
2007,05,21,09,18,10.00
2007,05,21,09,19,10.20
2007,05,21,09,20,10.30
2007,05,21,09,21,10.30
2007,05,21,09,22,10.40
2007,05,21,09,23,10.40
2007,05,21,09,24,10.40
2007,05,21,09,25,10.40
2007,05,21,09,26,10.40
2007,05,21,09,27,10.50
2007,05,21,09,28,10.60
2007,05,21,09,29,10.60
2007,05,21,09,30,10.70
2007,05,21,09,31,10.70
2007,05,21,09,32,10.80
2007,05,21,09,33,10.80
2007,05,21,09,34,10.80
2007,05,21,09,35,10.80
2007,05,21,09,36,10.90
2007,05,21,09,37,10.90
2007,05,21,09,38,11.00
2007,05,21,09,39,11.10
2007,05,21,09,40,11.20
2007,05,21,09,41,11.30
2007,05,21,09,42,11.50
2007,05,21,09,43,11.60
2007,05,21,09,44,11.60
2007,05,21,09,45,11.70
2007,05,21,09,46,11.70
2007,05,21,09,47,11.80
2007,05,21,09,48,11.90
2007,05,21,09,49,12.00
2007,05,21,09,50,12.10
2007,05,21,09,51,12.10
2007,05,21,09,52,12.10
2007,05,21,09,53,12.00
2007,05,21,09,54,12.00
2007,05,21,09,55,11.90
2007,05,21,09,56,11.90
2007,05,21,09,57,11.80
2007,05,21,09,58,11.80
2007,05,21,09,59,11.80
2007,05,21,10,00,11.70
2007,05,21,10,01,11.80
2007,05,21,10,02,11.80
2007,05,21,10,03,11.70
2007,05,21,10,04,11.70
2007,05,21,10,05,11.70
2007,05,21,10,06,11.70
2007,05,21,10,07,11.80
2007,05,21,10,08,11.90
2007,05,21,10,09,12.00
2007,05,21,10,10,12.10
2007,05,21,10,11,12.20
2007,05,21,10,12,12.40
2007,05,21,10,13,12.50
2007,05,21,10,14,12.50
2007,05,21,10,15,12.60
2007,05,21,10,16,12.60
2007,05,21,10,17,12.60
2007,05,21,10,18,12.60
2007,05,21,10,19,12.70
2007,05,21,10,20,12.80
2007,05,21,10,21,12.90
2007,05,21,10,22,13.00
2007,05,21,10,23,13.10
2007,05,21,10,24,13.20
2007,05,21,10,25,13.30
2007,05,21,10,26,13.30
2007,05,21,10,27,13.30
2007,05,21,10,28,13.30
2007,05,21,10,29,13.30
2007,05,21,10,30,13.30
2007,05,21,10,31,13.20
2007,05,21,10,32,13.10
2007,05,21,10,33,13.10
2007,05,21,10,34,13.10
2007,05,21,10,35,13.10
2007,05,21,10,36,13.10
2007,05,21,10,37,13.20
2007,05,21,10,38,13.20
2007,05,21,10,39,13.20
2007,05,21,10,40,13.30
2007,05,21,10,41,13.40
2007,05,21,10,42,13.40
2007,05,21,10,43,13.30
2007,05,21,10,44,13.30
2007,05,21,10,45,13.40
2007,05,21,10,46,13.40
2007,05,21,10,47,13.40
2007,05,21,10,48,13.50
2007,05,21,10,49,13.50
2007,05,21,10,50,13.60
2007,05,21,10,51,13.70
2007,05,21,10,52,13.70
2007,05,21,10,53,13.80
2007,05,21,10,54,13.90
2007,05,21,10,55,14.00
2007,05,21,10,56,14.10
2007,05,21,10,57,14.10
2007,05,21,10,58,14.20
2007,05,21,10,59,14.20
2007,05,21,11,00,14.30
2007,05,21,11,01,14.30
2007,05,21,11,02,14.10
2007,05,21,11,03,14.00
2007,05,21,11,04,13.90
2007,05,21,11,05,13.80
2007,05,21,11,06,13.70
2007,05,21,11,07,13.70
2007,05,21,11,08,13.70
2007,05,21,11,09,13.80
2007,05,21,11,10,13.90
2007,05,21,11,11,14.00
2007,05,21,11,12,14.20
2007,05,21,11,13,14.30
2007,05,21,11,14,14.40
2007,05,21,11,15,14.50
2007,05,21,11,16,14.60
2007,05,21,11,17,14.70
2007,05,21,11,18,14.60
2007,05,21,11,19,14.60
2007,05,21,11,20,14.60
2007,05,21,11,21,14.60
2007,05,21,11,22,14.60
2007,05,21,11,23,14.70
2007,05,21,11,24,14.80
2007,05,21,11,25,14.80
2007,05,21,11,26,14.80
2007,05,21,11,27,14.80
2007,05,21,11,28,14.80
2007,05,21,11,29,14.80
2007,05,21,11,30,14.80
2007,05,21,11,31,14.60
2007,05,21,11,32,14.50
2007,05,21,11,33,14.50
2007,05,21,11,34,14.50
2007,05,21,11,35,14.50
2007,05,21,11,36,14.50
2007,05,21,11,37,14.60
2007,05,21,11,38,14.60
2007,05,21,11,39,14.60
2007,05,21,11,40,14.70
2007,05,21,11,41,14.70
2007,05,21,11,42,14.80
2007,05,21,11,43,14.70
2007,05,21,11,44,14.60
2007,05,21,11,45,14.60
2007,05,21,11,46,14.50
2007,05,21,11,47,14.50
2007,05,21,11,48,14.60
2007,05,21,11,49,14.60
2007,05,21,11,50,14.70
2007,05,21,11,51,14.80
2007,05,21,11,52,14.90
2007,05,21,11,53,15.00
2007,05,21,11,54,15.00
2007,05,21,11,55,15.00
2007,05,21,11,56,15.10
2007,05,21,11,57,15.10
2007,05,21,11,58,15.00
2007,05,21,11,59,15.00
2007,05,21,12,00,15.00
2007,05,21,12,01,15.00
2007,05,21,12,02,15.00
2007,05,21,12,03,14.80
2007,05,21,12,04,14.60
2007,05,21,12,05,14.60
2007,05,21,12,06,14.60
2007,05,21,12,07,14.60
2007,05,21,12,08,14.60
2007,05,21,12,09,14.60
2007,05,21,12,10,14.60
2007,05,21,12,11,14.60
2007,05,21,12,12,14.60
2007,05,21,12,13,14.60
2007,05,21,12,14,14.60
2007,05,21,12,15,14.60
2007,05,21,12,16,14.70
2007,05,21,12,17,14.70
2007,05,21,12,18,14.80
2007,05,21,12,19,14.80
2007,05,21,12,20,14.80
2007,05,21,12,21,14.80
2007,05,21,12,22,15.00
2007,05,21,12,23,15.00
2007,05,21,12,24,15.00
2007,05,21,12,25,15.10
2007,05,21,12,26,15.20
2007,05,21,12,27,15.20
2007,05,21,12,28,15.30
2007,05,21,12,29,15.30
2007,05,21,12,30,15.20
2007,05,21,12,31,15.10
2007,05,21,12,32,15.00
2007,05,21,12,33,15.00
2007,05,21,12,34,15.10
2007,05,21,12,35,15.10
2007,05,21,12,36,15.10
2007,05,21,12,37,15.00
2007,05,21,12,38,15.00
2007,05,21,12,39,15.20
2007,05,21,12,40,15.20
2007,05,21,12,41,15.20
2007,05,21,12,42,15.30
2007,05,21,12,43,15.30
2007,05,21,12,44,15.40
2007,05,21,12,45,15.40
2007,05,21,12,46,15.30
2007,05,21,12,47,15.20
2007,05,21,12,48,15.20
2007,05,21,12,49,15.30
2007,05,21,12,50,15.30
2007,05,21,12,51,15.30
2007,05,21,12,52,15.20
2007,05,21,12,53,15.10
2007,05,21,12,54,15.00
2007,05,21,12,55,15.00
2007,05,21,12,56,15.00
2007,05,21,12,57,15.00
2007,05,21,12,58,15.00
2007,05,21,12,59,15.00
2007,05,21,13,00,15.00
2007,05,21,13,01,15.00
2007,05,21,13,02,15.00
2007,05,21,13,03,15.00
2007,05,21,13,04,15.00
2007,05,21,13,05,15.00
2007,05,21,13,06,15.10
2007,05,21,13,07,15.20
2007,05,21,13,08,15.30
2007,05,21,13,09,15.30
2007,05,21,13,10,15.30
2007,05,21,13,11,15.40
2007,05,21,13,12,15.40
2007,05,21,13,13,15.40
2007,05,21,13,14,15.40
2007,05,21,13,15,15.50
2007,05,21,13,16,15.50
2007,05,21,13,17,15.50
2007,05,21,13,18,15.60
2007,05,21,13,19,15.60
2007,05,21,13,20,15.60
2007,05,21,13,21,15.70
2007,05,21,13,22,15.70
2007,05,21,13,23,15.70
2007,05,21,13,24,15.80
2007,05,21,13,25,15.70
2007,05,21,13,26,15.60
2007,05,21,13,27,15.40
2007,05,21,13,28,15.30
2007,05,21,13,29,15.20
2007,05,21,13,30,15.30
2007,05,21,13,31,15.40
2007,05,21,13,32,15.50
2007,05,21,13,33,15.60
2007,05,21,13,34,15.70
2007,05,21,13,35,15.80
2007,05,21,13,36,15.70
2007,05,21,13,37,15.60
2007,05,21,13,38,15.40
2007,05,21,13,39,15.30
2007,05,21,13,40,15.20
2007,05,21,13,41,15.20
2007,05,21,13,42,15.30
2007,05,21,13,43,15.40
2007,05,21,13,44,15.50
2007,05,21,13,45,15.50
2007,05,21,13,46,15.40
2007,05,21,13,47,15.30
2007,05,21,13,48,15.20
2007,05,21,13,49,15.30
2007,05,21,13,50,15.30
2007,05,21,13,51,15.30
2007,05,21,13,52,15.40
2007,05,21,13,53,15.50
2007,05,21,13,54,15.50
2007,05,21,13,55,15.60
2007,05,21,13,56,15.70
2007,05,21,13,57,15.80
2007,05,21,13,58,15.80
2007,05,21,13,59,15.80
2007,05,21,14,00,15.70
2007,05,21,14,01,15.60
2007,05,21,14,02,15.50
2007,05,21,14,03,15.40
2007,05,21,14,04,15.40
2007,05,21,14,05,15.40
2007,05,21,14,06,15.30
2007,05,21,14,07,15.30
2007,05,21,14,08,15.30
2007,05,21,14,09,15.30
2007,05,21,14,10,15.30
2007,05,21,14,11,15.30
2007,05,21,14,12,15.30
2007,05,21,14,13,15.30
2007,05,21,14,14,15.30
2007,05,21,14,15,15.10
2007,05,21,14,16,15.00
2007,05,21,14,17,15.00
2007,05,21,14,18,15.00
2007,05,21,14,19,15.00
2007,05,21,14,20,15.00
2007,05,21,14,21,15.00
2007,05,21,14,22,15.00
2007,05,21,14,23,15.00
2007,05,21,14,24,15.00
2007,05,21,14,25,15.00
2007,05,21,14,26,15.10
2007,05,21,14,27,15.20
2007,05,21,14,28,15.30
2007,05,21,14,29,15.40
2007,05,21,14,30,15.50
2007,05,21,14,31,15.60
2007,05,21,14,32,15.50
2007,05,21,14,33,15.40
2007,05,21,14,34,15.30
2007,05,21,14,35,15.30
2007,05,21,14,36,15.40
2007,05,21,14,37,15.50
2007,05,21,14,38,15.60
2007,05,21,14,39,15.60
2007,05,21,14,40,15.60
2007,05,21,14,41,15.50
2007,05,21,14,42,15.50
2007,05,21,14,43,15.50
2007,05,21,14,44,15.60
2007,05,21,14,45,15.60
2007,05,21,14,46,15.70
2007,05,21,14,47,15.70
2007,05,21,14,48,15.60
2007,05,21,14,49,15.60
2007,05,21,14,50,15.60
2007,05,21,14,51,15.70
2007,05,21,14,52,15.80
2007,05,21,14,53,15.80
2007,05,21,14,54,16.00
2007,05,21,14,55,15.90
2007,05,21,14,56,15.70
2007,05,21,14,57,15.60
2007,05,21,14,58,15.50
2007,05,21,14,59,15.60
2007,05,21,15,00,15.60
2007,05,21,15,01,15.70
2007,05,21,15,02,15.70
2007,05,21,15,03,15.80
2007,05,21,15,04,15.80
2007,05,21,15,05,15.80
2007,05,21,15,06,15.80
2007,05,21,15,07,15.80
2007,05,21,15,08,15.60
2007,05,21,15,09,15.50
2007,05,21,15,10,15.40
2007,05,21,15,11,15.40
2007,05,21,15,12,15.40
2007,05,21,15,13,15.40
2007,05,21,15,14,15.40
2007,05,21,15,15,15.40
2007,05,21,15,16,15.40
2007,05,21,15,17,15.40
2007,05,21,15,18,15.40
2007,05,21,15,19,15.40
2007,05,21,15,20,15.40
2007,05,21,15,21,15.40
2007,05,21,15,22,15.50
2007,05,21,15,23,15.40
2007,05,21,15,24,15.30
2007,05,21,15,25,15.20
2007,05,21,15,26,15.20
2007,05,21,15,27,15.20
2007,05,21,15,28,15.10
2007,05,21,15,29,15.00
2007,05,21,15,30,15.00
2007,05,21,15,31,14.90
2007,05,21,15,32,14.80
2007,05,21,15,33,14.70
2007,05,21,15,34,14.60
2007,05,21,15,35,14.50
2007,05,21,15,36,14.50
2007,05,21,15,37,14.40
2007,05,21,15,38,14.30
2007,05,21,15,39,14.30
2007,05,21,15,40,14.30
2007,05,21,15,41,14.30
2007,05,21,15,42,14.30
2007,05,21,15,43,14.30
2007,05,21,15,44,14.30
2007,05,21,15,45,14.30
2007,05,21,15,46,14.30
2007,05,21,15,47,14.30
2007,05,21,15,48,14.30
2007,05,21,15,49,14.20
2007,05,21,15,50,14.20
2007,05,21,15,51,14.10
2007,05,21,15,52,14.10
2007,05,21,15,53,14.10
2007,05,21,15,54,14.10
2007,05,21,15,55,14.00
2007,05,21,15,56,14.00
2007,05,21,15,57,14.00
2007,05,21,15,58,14.00
2007,05,21,15,59,13.90
2007,05,21,16,00,13.90
2007,05,21,16,01,13.90
2007,05,21,16,02,13.90
2007,05,21,16,03,13.80
2007,05,21,16,04,13.80
2007,05,21,16,05,13.80
2007,05,21,16,06,13.70
2007,05,21,16,07,13.70
2007,05,21,16,08,13.70
2007,05,21,16,09,13.70
2007,05,21,16,10,13.60
2007,05,21,16,11,13.60
2007,05,21,16,12,13.60
2007,05,21,16,13,13.60
2007,05,21,16,14,13.60
2007,05,21,16,15,13.50
2007,05,21,16,16,13.50
2007,05,21,16,17,13.50
2007,05,21,16,18,13.50
2007,05,21,16,19,13.50
2007,05,21,16,20,13.40
2007,05,21,16,21,13.40
2007,05,21,16,22,13.40
2007,05,21,16,23,13.40
2007,05,21,16,24,13.40
2007,05,21,16,25,13.30
2007,05,21,16,26,13.30
2007,05,21,16,27,13.30
2007,05,21,16,28,13.20
2007,05,21,16,29,13.20
2007,05,21,16,30,13.10
2007,05,21,16,31,13.10
2007,05,21,16,32,13.10
2007,05,21,16,33,13.10
2007,05,21,16,34,13.10
2007,05,21,16,35,13.00
2007,05,21,16,36,13.00
2007,05,21,16,37,12.90
2007,05,21,16,38,12.90
2007,05,21,16,39,12.90
2007,05,21,16,40,12.90
2007,05,21,16,41,12.80
2007,05,21,16,42,12.80
2007,05,21,16,43,12.80
2007,05,21,16,44,12.70
2007,05,21,16,45,12.70
2007,05,21,16,46,12.60
2007,05,21,16,47,12.60
2007,05,21,16,48,12.50
2007,05,21,16,49,12.50
2007,05,21,16,50,12.50
2007,05,21,16,51,12.50
2007,05,21,16,52,12.40
2007,05,21,16,53,12.30
2007,05,21,16,54,12.20
2007,05,21,16,55,12.00
2007,05,21,16,56,11.90
2007,05,21,16,57,11.80
2007,05,21,16,58,11.70
2007,05,21,16,59,11.70
2007,05,21,17,00,11.60
2007,05,21,17,01,11.60
2007,05,21,17,02,11.60
2007,05,21,17,03,11.50
2007,05,21,17,04,11.40
2007,05,21,17,05,11.40
2007,05,21,17,06,11.30
2007,05,21,17,07,11.20
2007,05,21,17,08,11.10
2007,05,21,17,09,11.00
2007,05,21,17,10,10.90
2007,05,21,17,11,10.80
2007,05,21,17,12,10.80
2007,05,21,17,13,10.70
2007,05,21,17,14,10.70
2007,05,21,17,15,10.60
2007,05,21,17,16,10.60
2007,05,21,17,17,10.50
2007,05,21,17,18,10.50
2007,05,21,17,19,10.40
2007,05,21,17,20,10.30
2007,05,21,17,21,10.20
2007,05,21,17,22,10.10
2007,05,21,17,23,9.90
2007,05,21,17,24,9.80
2007,05,21,17,25,9.60
2007,05,21,17,26,9.40
2007,05,21,17,27,9.30
2007,05,21,17,28,9.20
2007,05,21,17,29,9.00
2007,05,21,17,30,8.90
2007,05,21,17,31,8.80
2007,05,21,17,32,8.70
2007,05,21,17,33,8.60
2007,05,21,17,34,8.60
2007,05,21,17,35,8.60
2007,05,21,17,36,8.60
2007,05,21,17,37,8.60
2007,05,21,17,38,8.60
2007,05,21,17,39,8.60
2007,05,21,17,40,8.60
2007,05,21,17,41,8.60
2007,05,21,17,42,8.60
2007,05,21,17,43,8.50
2007,05,21,17,44,8.50